Temperature
22 23 23 23 23 23 23 23 23 23 24 23 23 22 22 21 21 20 20 19 18 17 16 16 16 17 17 17 17 17 17 17 17 17 17 17 17 17 17 17 17 17 17 17
23 23 24 24 23 23 23 23 23 23 23 23 22 22 21 20 19 18 18 17 16 16 16 15 15 16 16 16 16 17 17 17 17 17 17 17 17 17 17 17 17 17 17 17
23 24 24 23 23 22 23 23 23 23 23 23 22 21 21 20 19 17 16 15 15 14 14 14 14 15 15 16 16 16 16 16 16 16 16 16 16 16 16 16 16 16 16 16
23 24 23 23 23 23 22 24 23 23 22 22 22 21 21 20 19 18 16 15 14 13 13 14 14 14 14 15 15 15 15 16 16 16 16 16 15 15 15 15 15 15 15 15
23 24 23 23 23 23 23 24 23 23 22 22 22 22 22 21 19 18 16 14 13 13 13 13 13 13 13 14 14 14 15 15 15 15 15 15 15 15 15 15 15 14 14 15
24 24 23 23 24 23 23 23 23 23 23 21 22 22 21 21 20 18 15 13 12 12 12 12 12 13 13 13 13 14 14 14 14 15 15 15 15 15 14 14 14 14 14 14
23 24 24 23 23 23 22 22 21 21 21 21 22 21 20 20 19 17 15 13 11 11 11 11 11 12 12 12 13 13 13 13 13 14 14 14 13 13 13 13 13 13 13 13
22 23 23 23 22 22 22 22 21 20 21 21 21 21 19 18 17 15 13 12 11 10 10 10 10 11 11 11 12 12 12 12 12 13 13 13 13 13 12 12 12 12 12 12
22 22 23 23 23 22 22 22 23 22 22 21 21 20 17 16 15 13 12 11 10 9 9 9 9 10 10 10 11 11 11 11 11 12 12 12 12 12 11 11 11 11 11 11
22 21 23 22 22 22 22 22 22 21 20 19 20 20 19 16 15 13 12 10 9 9 9 9 9 9 9 9 10 10 10 10 10 11 11 11 10 10 10 10 10 10 10 10
22 21 22 22 22 22 22 22 21 22 22 20 19 19 19 18 16 14 12 10 9 9 8 8 8 8 8 9 9 9 9 9 9 9 9 9 9 9 9 9 9 9 9 8
22 21 21 22 22 22 22 22 21 20 20 21 20 18 17 17 15 13 11 9 8 8 8 8 8 8 8 8 8 8 8 8 8 8 8 8 8 8 8 8 8 8 8 8
21 20 20 21 21 21 21 21 21 21 20 20 20 18 15 15 13 11 10 8 8 8 7 7 7 7 7 7 7 7 7 7 7 7 7 7 7 7 7 7 7 7 7 7
21 21 20 20 20 21 21 21 21 20 20 20 20 18 15 13 12 11 9 8 8 7 7 7 7 7 7 7 7 6 6 6 6 6 6 6 6 6 6 6 6 6 6 6
20 21 21 21 21 21 21 21 21 20 20 20 19 18 16 14 12 10 9 8 7 7 7 7 6 6 6 6 6 6 6 6 6 6 6 5 5 5 5 5 6 6 5 5
20 20 21 20 21 21 20 20 20 20 20 20 19 17 16 13 11 9 8 8 7 7 6 6 6 6 6 6 6 6 5 5 5 5 5 5 5 5 5 5 5 5 5 5
21 20 20 20 21 20 20 20 20 19 19 19 18 17 14 12 11 9 8 8 7 6 6 6 6 6 5 5 5 5 5 5 5 5 5 5 5 5 5 5 5 5 4 4
20 20 20 20 20 19 20 20 20 19 18 18 17 16 14 12 10 9 8 8 7 6 6 6 5 5 5 5 5 5 5 5 5 5 5 5 5 5 5 5 5 4 4 4
20 20 20 20 20 20 19 19 19 19 18 17 16 14 12 10 9 8 8 7 7 6 6 6 5 5 5 5 5 5 5 5 5 5 5 5 5 5 5 5 4 4 4 4
20 20 20 20 19 19 19 19 19 19 17 16 15 13 11 11 11 9 7 7 7 6 6 5 5 5 5 5 5 5 5 5 5 5 5 5 5 5 5 4 4 4 4 4
20 20 20 20 20 20 19 18 18 18 17 15 14 12 12 12 12 9 7 7 6 6 6 5 5 5 5 5 5 5 5 5 5 5 5 5 5 5 4 4 4 4 4 4
21 21 20 20 20 20 18 18 18 16 15 14 13 12 11 10 9 8 7 7 6 6 6 5 5 5 5 5 5 5 5 5 5 5 5 5 5 5 5 4 4 4 4 4
21 21 21 20 19 16 15 16 14 14 14 13 12 11 10 9 8 7 7 6 6 6 6 6 5 5 5 5 5 5 5 5 5 5 5 5 5 5 4 4 4 4 4 5
20 19 20 19 17 15 14 14 14 13 13 12 11 10 10 8 8 7 7 6 6 6 6 6 6 5 5 5 5 5 5 5 5 5 5 5 5 5 4 5 5 5 5 5
21 19 19 19 16 15 14 14 13 12 12 11 10 10 9 8 8 7 7 6 6 6 6 6 6 5 5 5 5 5 5 5 5 5 5 5 5 5 5 4 4 4 4 4
21 20 20 20 17 17 14 13 12 12 11 10 10 9 9 8 8 7 7 6 6 6 6 6 6 6 5 5 5 5 5 5 5 5 5 5 5 5 5 5 4 4 4 4
Wind_Speed
5 8 6 2 3 6 7 8 8 6 3 6 6 4 1 1 1 2 2 3 4 5 6 7 6 5 3 3 5 7 9 10 9 8 8 8 8 8 6 5 6 7 8 9
8 8 4 4 5 7 8 9 8 5 3 5 5 4 2 1 2 3 3 4 5 5 7 8 7 7 6 3 2 3 6 7 7 8 8 7 7 5 4 3 3 4 5 6
9 2 1 6 7 8 9 9 9 8 5 8 7 7 6 4 4 5 5 5 6 7 8 8 8 8 6 6 4 2 2 4 5 6 6 5 5 3 3 3 3 3 3 4
8 6 7 10 10 10 11 7 8 9 10 8 9 9 7 7 5 5 6 6 7 7 8 8 8 8 8 6 4 4 3 4 3 5 6 8 6 5 4 4 4 5 7 7
7 6 9 11 11 10 12 9 10 11 11 11 10 10 5 8 6 5 6 7 7 8 8 8 8 8 8 7 6 5 5 5 4 4 5 7 6 6 7 8 9 8 8 9
13 9 8 11 10 9 10 11 11 11 11 13 10 10 6 5 5 6 7 8 8 8 9 9 9 9 9 9 7 6 7 7 7 7 7 7 9 10 11 10 9 7 7 8
10 9 7 7 10 8 9 11 9 9 10 9 5 7 2 3 4 7 8 9 8 9 9 10 11 11 10 10 9 8 9 9 9 10 10 10 11 12 11 10 9 9 8 8
9 7 3 4 8 8 8 11 10 9 8 4 4 4 3 6 8 9 10 10 10 10 10 11 11 11 10 11 11 10 11 11 11 12 11 12 12 11 10 11 10 10 9 9
6 6 1 4 6 7 7 8 8 10 11 8 4 3 5 7 8 9 9 10 10 9 10 11 11 11 11 11 12 12 12 13 13 13 14 14 13 13 14 13 13 11 11 11
6 9 5 2 6 8 8 7 6 8 7 8 6 6 5 11 10 9 9 10 9 9 9 10 10 10 11 11 12 13 14 14 14 14 14 13 14 14 14 14 14 13 13 12
5 7 5 5 5 5 6 7 8 8 8 7 6 1 3 9 12 12 11 10 9 9 9 9 9 10 11 12 13 14 14 15 14 14 15 15 15 15 15 14 14 13 13 12
4 5 7 5 1 3 6 7 8 9 8 8 8 1 5 6 12 13 13 11 10 10 9 9 10 10 11 12 13 13 14 14 14 14 15 15 15 15 15 15 14 13 13 12
4 5 7 5 5 6 5 6 7 8 8 9 9 2 6 10 13 13 13 12 10 10 10 10 10 10 11 12 12 13 13 14 13 14 15 15 15 15 15 14 13 13 13 12
4 6 8 8 5 4 5 6 7 8 8 9 7 4 8 11 12 12 13 12 11 10 10 10 10 10 11 11 12 13 13 13 14 14 15 15 14 14 14 14 13 13 12 12
4 7 7 7 6 6 6 5 5 7 8 8 4 3 9 13 14 13 13 13 12 11 10 10 10 10 11 12 12 13 13 13 14 15 15 15 14 13 13 13 12 12 12 12
5 6 6 7 6 6 6 5 4 4 4 4 2 2 9 13 13 13 14 14 13 12 11 11 10 11 11 11 12 13 13 12 13 14 14 13 13 13 12 12 11 11 11 11
5 5 6 6 4 7 6 3 3 2 1 2 3 4 14 14 14 15 15 14 13 13 12 12 11 10 10 11 12 13 12 12 13 13 13 12 12 12 11 11 11 11 10 10
6 6 5 5 5 5 2 2 1 1 0 1 2 10 13 13 12 12 13 15 14 13 13 12 11 11 10 11 12 12 12 12 12 12 11 11 10 10 10 10 10 9 9 9
6 6 5 5 6 4 4 3 3 3 1 2 7 13 14 16 13 8 10 13 14 13 13 12 12 12 11 11 11 12 12 11 11 11 10 10 9 9 9 9 9 8 8 8
6 7 7 6 7 4 3 4 1 3 3 6 10 15 16 15 8 7 12 14 14 14 13 13 12 13 12 11 11 11 11 11 10 10 9 8 8 8 9 8 8 7 7 7
7 7 8 8 7 1 5 3 3 4 3 10 12 15 15 9 6 15 16 15 14 14 14 14 13 12 11 11 11 11 10 10 9 9 8 8 8 7 7 7 6 6 7 7
6 5 5 5 5 1 4 3 1 4 7 10 13 14 12 13 18 19 17 17 16 15 15 14 13 12 11 10 10 11 10 9 8 8 8 8 7 6 7 7 6 6 6 7
4 3 2 2 3 5 3 4 5 5 9 11 13 15 16 17 18 18 17 16 16 15 14 13 13 13 11 10 9 11 9 8 8 8 7 7 7 6 6 6 6 5 4 5
4 2 2 3 5 6 6 6 7 9 11 13 15 16 17 18 19 18 16 15 15 14 13 12 13 13 11 10 10 10 9 8 7 7 7 6 6 6 6 4 5 5 5 5
4 6 4 3 7 8 6 8 10 12 14 16 16 16 17 19 19 18 16 15 14 13 12 11 12 12 12 11 10 9 8 7 7 6 6 5 6 6 6 7 6 6 8 7
6 5 4 2 10 8 10 11 14 16 16 17 17 16 16 17 18 17 16 14 14 13 12 11 12 12 12 11 10 8 7 6 6 5 5 5 5 5 5 7 7 9 8 7
Wind_Direction
208 237 236 261 285 301 298 291 289 288 275 264 259 250 260 14 17 32 32 46 60 58 47 45 44 48 87 138 175 191 193 195 187 185 191 197 204 206 196 196 198 201 205 207
222 232 242 264 270 273 275 279 280 273 243 261 253 230 177 91 66 55 50 45 47 49 45 41 39 44 47 62 108 165 187 190 191 193 194 196 190 193 183 166 159 186 194 194
249 272 215 257 259 266 270 278 291 292 272 245 239 226 190 150 109 86 76 65 55 50 44 39 36 35 37 40 48 98 151 168 178 178 177 166 160 158 167 153 123 86 105 129
253 255 246 260 267 270 276 283 285 277 265 251 232 255 187 174 144 110 90 75 63 53 46 40 35 32 31 35 44 62 90 103 134 156 165 168 173 169 159 128 104 80 74 82
248 245 259 270 278 275 280 293 279 271 265 267 241 256 205 176 183 139 107 87 70 56 48 44 37 38 37 37 53 63 76 78 85 110 144 152 143 124 113 109 99 84 74 74
267 270 271 279 282 271 274 269 260 253 252 252 246 250 238 194 196 150 116 93 74 63 53 46 39 39 39 42 53 65 75 74 74 78 86 102 113 116 116 112 106 97 86 76
259 251 234 258 269 245 246 255 253 243 236 244 227 242 238 118 129 139 122 98 80 67 59 50 42 41 41 47 52 60 70 70 73 79 80 86 95 99 102 103 101 96 86 80
283 279 233 242 265 280 257 257 263 276 273 255 211 236 106 100 102 109 108 98 83 70 64 58 51 47 47 51 55 61 71 73 73 78 81 83 89 92 91 89 90 87 85 83
285 296 219 253 263 265 261 250 276 279 277 273 233 159 132 125 119 115 110 97 82 73 69 66 59 53 53 56 58 63 72 75 76 80 83 81 83 89 91 89 87 86 85 86
277 285 276 244 242 229 263 282 259 257 272 269 243 225 207 174 164 145 127 109 96 85 75 70 67 62 61 64 68 69 72 76 78 81 83 86 85 87 90 90 89 89 89 88
252 268 269 236 247 257 227 234 252 265 272 278 273 245 33 171 163 151 133 121 111 100 88 79 73 69 70 71 74 75 76 77 79 81 85 87 88 89 89 89 88 88 87 86
226 270 277 261 242 273 260 264 260 265 271 268 280 73 59 131 145 141 132 124 115 108 100 93 87 82 78 77 77 78 80 81 82 85 87 88 89 89 88 87 87 85 85 85
195 252 272 230 197 207 236 252 262 266 277 275 275 154 95 117 127 132 130 127 123 116 108 100 93 89 87 85 84 84 84 86 87 89 89 88 88 88 88 88 86 86 87 86
226 261 277 291 314 296 262 259 258 260 269 273 270 172 147 139 136 135 133 131 126 121 116 108 101 96 95 94 94 93 91 92 93 92 91 89 88 88 89 89 88 88 88 88
233 264 271 277 279 271 272 279 273 267 277 284 281 177 161 156 148 142 138 135 131 126 120 114 110 107 104 101 98 97 96 95 96 95 93 92 92 91 90 89 89 89 90 90
228 269 272 264 249 249 255 263 271 275 281 271 225 130 138 140 139 141 144 142 139 134 128 121 117 115 112 110 107 104 102 102 102 100 99 101 100 97 94 92 92 89 87 86
221 249 269 272 256 257 252 241 254 268 303 278 270 143 141 144 150 153 153 148 143 141 137 131 126 121 119 116 115 113 111 110 106 103 103 102 101 99 98 98 95 93 91 89
234 247 267 279 263 263 79 104 230 241 215 333 104 137 149 148 144 145 151 147 144 144 139 133 129 123 120 119 117 116 114 112 109 106 105 104 102 99 98 96 95 95 95 93
232 241 266 276 279 282 150 167 193 246 247 125 139 137 132 124 117 120 138 142 144 143 138 134 131 129 126 124 124 121 118 115 111 107 106 104 102 100 97 94 95 97 99 97
204 231 255 273 292 307 95 120 175 256 214 140 147 145 145 150 151 146 143 137 135 135 134 134 133 133 130 130 131 126 122 118 113 109 106 104 100 96 93 93 95 96 100 101
203 218 245 269 280 317 92 124 202 261 82 143 152 154 158 167 132 136 139 137 136 135 136 136 136 135 134 137 135 129 126 118 114 112 108 104 100 95 93 94 96 101 100 98
234 241 246 268 277 72 103 165 256 56 113 140 146 149 139 117 119 130 136 137 139 139 142 142 139 135 138 141 137 129 122 119 118 115 109 103 98 94 98 97 97 98 104 113
237 302 317 341 39 88 92 78 81 112 131 137 139 136 131 129 132 135 137 140 142 143 143 144 143 140 141 144 138 127 126 127 124 118 112 108 102 93 93 97 101 105 107 104
170 166 173 142 119 118 113 109 112 123 130 133 134 135 135 135 137 138 139 140 142 141 143 147 147 144 143 143 134 129 132 131 126 119 116 115 113 107 94 84 84 88 92 97
156 176 183 153 136 134 127 123 124 124 126 129 132 135 137 138 140 140 141 143 143 143 147 150 148 145 144 142 137 137 138 139 131 128 125 121 112 104 100 81 59 63 65 47
180 188 209 197 164 155 140 136 134 132 132 133 132 131 137 139 139 140 141 142 144 145 149 149 147 145 144 145 145 144 144 144 140 139 134 124 117 118 116 116 108 62 65 76
Height
1499 1496 1490 1488 1489 1490 1490 1490 1488 1484 1482 1484 1483 1484 1487 1488 1489 1489 1489 1490 1491 1492 1493 1493 1493 1494 1496 1497 1499 1502 1504 1506 1509 1511 1514 1517 1520 1523 1526 1528 1531 1533 1536 1538
1495 1490 1487 1488 1489 1490 1489 1488 1484 1480 1481 1483 1483 1484 1486 1489 1490 1492 1492 1492 1492 1493 1493 1493 1493 1493 1494 1496 1497 1499 1502 1504 1507 1509 1511 1514 1517 1520 1522 1524 1527 1529 1532 1535
1489 1484 1487 1488 1487 1488 1485 1484 1482 1482 1480 1479 1482 1484 1484 1488 1491 1493 1493 1493 1494 1494 1494 1494 1494 1493 1493 1493 1495 1497 1499 1502 1504 1506 1509 1512 1514 1516 1518 1520 1523 1526 1528 1530
1484 1482 1486 1485 1483 1483 1483 1477 1479 1480 1481 1477 1479 1482 1479 1482 1487 1491 1494 1495 1495 1495 1495 1494 1494 1493 1493 1493 1495 1496 1497 1499 1502 1504 1506 1508 1510 1512 1515 1517 1520 1523 1525 1527
1480 1480 1481 1481 1479 1478 1477 1475 1477 1476 1476 1477 1473 1478 1475 1478 1484 1490 1494 1496 1497 1497 1496 1496 1495 1494 1494 1494 1494 1495 1497 1498 1500 1502 1504 1506 1508 1510 1512 1515 1518 1520 1522 1524
1477 1476 1479 1477 1476 1476 1475 1475 1474 1473 1471 1481 1471 1476 1477 1475 1480 1487 1494 1497 1498 1498 1498 1497 1496 1495 1495 1495 1495 1495 1496 1497 1499 1501 1502 1504 1506 1507 1510 1513 1515 1518 1520 1522
1473 1471 1474 1476 1476 1473 1475 1478 1481 1480 1478 1475 1465 1472 1477 1477 1481 1487 1494 1498 1500 1500 1499 1498 1497 1496 1496 1495 1495 1496 1497 1498 1499 1501 1502 1504 1506 1508 1510 1512 1514 1516 1518 1520
1476 1474 1470 1472 1474 1473 1471 1473 1481 1485 1479 1471 1469 1473 1480 1483 1487 1492 1496 1499 1501 1502 1501 1500 1499 1498 1498 1497 1497 1497 1498 1499 1500 1502 1503 1505 1507 1510 1511 1513 1515 1517 1518 1520
1474 1474 1469 1472 1472 1472 1470 1468 1463 1470 1468 1472 1470 1475 1483 1487 1491 1495 1498 1500 1502 1503 1504 1503 1502 1501 1500 1500 1499 1500 1500 1501 1502 1503 1504 1506 1509 1510 1512 1514 1517 1519 1520 1521
1471 1477 1468 1470 1471 1470 1469 1465 1468 1471 1479 1480 1473 1472 1475 1484 1490 1495 1499 1502 1504 1505 1506 1506 1505 1504 1504 1503 1502 1503 1503 1504 1505 1506 1507 1508 1511 1513 1515 1516 1518 1520 1522 1524
1471 1476 1470 1468 1468 1466 1469 1469 1468 1464 1464 1474 1480 1478 1471 1476 1485 1493 1499 1503 1505 1507 1508 1508 1508 1507 1507 1506 1506 1506 1506 1507 1508 1509 1510 1512 1514 1516 1518 1519 1521 1523 1525 1527
1472 1472 1471 1465 1464 1467 1466 1465 1465 1473 1470 1466 1469 1482 1477 1479 1486 1493 1500 1504 1507 1508 1510 1510 1510 1510 1510 1510 1510 1510 1511 1512 1513 1514 1515 1516 1518 1519 1521 1522 1524 1526 1528 1531
1472 1474 1475 1471 1471 1468 1466 1464 1465 1466 1467 1467 1469 1481 1482 1484 1490 1496 1501 1505 1508 1510 1511 1512 1513 1513 1514 1514 1514 1515 1515 1516 1518 1519 1519 1520 1522 1523 1525 1526 1528 1530 1532 1534
1472 1470 1473 1475 1469 1464 1464 1463 1463 1465 1466 1466 1464 1474 1484 1488 1493 1499 1503 1506 1509 1512 1513 1515 1516 1517 1517 1518 1518 1519 1520 1521 1522 1523 1524 1525 1527 1528 1530 1531 1533 1535 1537 1538
1471 1468 1466 1464 1463 1464 1463 1463 1462 1463 1463 1464 1464 1469 1478 1487 1494 1499 1504 1508 1511 1513 1515 1517 1518 1520 1521 1522 1523 1523 1524 1526 1527 1528 1529 1531 1532 1533 1535 1536 1538 1540 1541 1542
1470 1467 1466 1465 1461 1461 1463 1462 1462 1463 1463 1463 1466 1473 1479 1488 1495 1500 1505 1508 1512 1514 1516 1518 1520 1522 1523 1525 1526 1527 1529 1530 1531 1532 1534 1536 1537 1539 1540 1541 1542 1543 1544 1546
1464 1467 1468 1466 1460 1462 1464 1461 1462 1464 1464 1466 1468 1474 1482 1490 1495 1500 1504 1508 1512 1515 1518 1520 1522 1524 1526 1528 1529 1531 1532 1534 1536 1537 1539 1541 1542 1543 1544 1545 1546 1547 1548 1549
1464 1465 1464 1462 1464 1473 1464 1460 1462 1464 1466 1468 1471 1477 1484 1490 1496 1501 1505 1508 1512 1516 1519 1521 1524 1526 1528 1531 1533 1534 1537 1538 1540 1542 1543 1545 1546 1547 1548 1549 1550 1550 1551 1552
1463 1464 1463 1462 1462 1459 1461 1461 1462 1465 1467 1471 1474 1481 1487 1493 1498 1504 1507 1509 1513 1517 1520 1523 1526 1529 1531 1533 1536 1538 1540 1542 1544 1546 1548 1549 1550 1551 1552 1552 1552 1553 1553 1554
1463 1463 1462 1460 1466 1465 1461 1461 1464 1466 1468 1473 1476 1482 1488 1492 1495 1504 1508 1511 1515 1519 1522 1525 1528 1532 1534 1537 1539 1541 1544 1546 1548 1550 1551 1552 1553 1554 1554 1554 1555 1555 1556 1556
1459 1460 1459 1458 1460 1454 1461 1464 1466 1468 1469 1475 1478 1483 1488 1490 1493 1501 1507 1512 1517 1521 1524 1528 1531 1534 1537 1539 1542 1545 1547 1549 1551 1552 1554 1555 1556 1556 1556 1556 1557 1557 1558 1558
1452 1453 1455 1456 1459 1461 1465 1465 1465 1470 1473 1476 1480 1485 1489 1493 1497 1503 1508 1514 1518 1523 1527 1530 1533 1536 1540 1542 1545 1547 1549 1551 1553 1555 1556 1557 1558 1559 1559 1558 1559 1559 1560 1560
1449 1451 1448 1454 1461 1467 1468 1469 1472 1473 1475 1479 1483 1487 1491 1495 1500 1506 1511 1516 1521 1525 1529 1532 1536 1539 1542 1545 1547 1549 1552 1553 1555 1556 1557 1558 1559 1560 1560 1561 1561 1561 1562 1563
1452 1456 1454 1458 1464 1469 1471 1473 1474 1476 1479 1482 1486 1490 1494 1498 1503 1509 1514 1518 1523 1527 1531 1534 1538 1541 1544 1547 1549 1551 1553 1555 1557 1558 1559 1560 1561 1561 1562 1562 1563 1564 1564 1565
1448 1454 1454 1458 1466 1470 1473 1474 1477 1479 1482 1486 1490 1494 1497 1501 1506 1511 1516 1520 1525 1529 1533 1536 1539 1542 1545 1548 1551 1553 1555 1557 1558 1559 1560 1561 1562 1563 1563 1564 1564 1565 1564 1565
1449 1451 1451 1451 1461 1464 1472 1476 1479 1481 1485 1489 1493 1497 1501 1505 1509 1514 1518 1523 1527 1531 1535 1538 1541 1544 1547 1550 1552 1555 1556 1558 1559 1560 1561 1562 1563 1564 1565 1565 1565 1565 1566 1566